Location: Cedar Brake
(32.2526°N, 97.8459°W)
Time: 16:53:15
(UTC+00:00)

CZ-2D R/B - Pass Details

Date: 22 April 2026
Orbit: 789 x 842 km, 98.9° (Epoch: 9 May)

Event Time Altitude Azimuth Distance (km) Brightness Sun altitude
Rises 09:02:53 0° 16° (NNE) 3,315 6.1 -32.4°
Reaches altitude 10° 09:05:14 10° 18° (NNE) 2,388 5.2 -32.0°
Enters shadow 09:09:35 58° 48° (NE) 944 2.6 -31.4°
